Hourly Weather Roundup
Issued by NWS Central Illinois

Home | Current Version | Previous Version | Text Only | Print | Product List | Glossary On
Versions: 1 2 3 4 5 6 7 8 9 10 11 12 13 14 15 16 17 18 19 20 21 22 23 24 25 26 27 28 29 30 31 32 33 34 35 36 37 38 39 40 41 42 43 44 45 46 47 48 49 50
000
NZUS43 KILX 012210
HWRILX

AREA WEATHER ROUNDUP
NATIONAL WEATHER SERVICE, LINCOLN IL
400 PM CST SUN FEB 01 2015


CITY           SKY/WX    TMP DP  RH WIND       PRES   REMARKS
BLOOMINGTON    LGT SNOW  33  32  96 NE12      29.62R VSB 3/4 WCI  24
CHAMPAIGN      FOG       33  32  96 W5        29.59S VSB 1/2 WCI  29
DECATUR        CLOUDY    34  33  96 W8        29.61R WCI  27
FLORA          CLOUDY    41  39  93 W13       29.63R WCI  34
GALESBURG      LGT SNOW  24  23  93 N25       29.74R VSB 3/4 WCI   8
JACKSONVILLE   LGT SNOW  35  33  93 NW8       29.65S WCI  29
LACON          LGT SNOW  26  23  87 N16G25    29.70R VSB 3/4 WCI  13
LAWRENCEVILLE  CLOUDY    44  44 100 W15       29.61S FOG
LITCHFIELD     CLOUDY    35  33  91 W12       29.64R WCI  27
$$


CITY           SKY/WX    TMP DP  RH WIND       PRES   REMARKS
LINCOLN        LGT SNOW  34  33  96 N6        29.64R WCI  29
MACOMB         LGT SNOW  26  24  93 N24G31    29.75R WCI  11
MATTOON        CLOUDY    36  34  92 W7        29.59S WCI  30
MT CARMEL AP   LGT RAIN  46  43  87 SW12G17   29.60S
OLNEY-NOBLE AP CLOUDY    41  39  93 CALM      29.62R
PARIS          DRIZZLE   35  35 100 CALM      29.60S
PEORIA         LGT SNOW  30  25  81 NE15G26   29.68R VSB 3/4 WCI  19
PONTIAC        LGT SNOW  30  28  95 NE29G36   29.65R VSB 3/4 WCI  15
RANTOUL        CLOUDY    34  34  98 CALM      29.58F FOG
ROBINSON       DRIZZLE   42  41  98 W14G20    29.61S WCI  35
SPRINGFIELD    CLOUDY    34  32  92 NW8       29.64R WCI  27
TAYLORVILLE    CLOUDY    32  32 100 W8        29.62S WCI  25
$$

...REGIONAL REPORTS...


CITY           SKY/WX    TMP DP  RH WIND       PRES   REMARKS
CHICAGO O`HARE SNOW      22  20  92 NE24G35   29.77R VSB 1/4 WCI   5
KANKAKEE       MIX PCPN  30  28  94 NE24      29.64S WCI  16
MOLINE         SNOW      21  17  84 N15G24    29.81R VSB 1/2 WCI   8
MOUNT VERNON   CLOUDY    43  37  81 W10       29.64R
PITTSFIELD     LGT SNOW  35  32  91 NW10      29.68R WCI  27
QUINCY         LGT SNOW  29  25  85 N21       29.72R FOG     WCI  16
ROCKFORD       SNOW      22  17  81 NE26G35   29.83R VSB 1/4 WCI   5
$$


CITY           SKY/WX    TMP DP  RH WIND       PRES   REMARKS
BURLINGTON     LGT SNOW  25  22  88 NE22G37   29.77R VSB 3/4 WCI  10
CEDAR RAPIDS   SNOW      17  14  88 N29G37    29.90R VSB 1/4 WCI  -2
DES MOINES     SNOW      19  13  77 N23G37    30.01R VSB 1/2 WCI   2
KIRKSVILLE     LGT SNOW  24  21  88 N23G29    29.83R FOG     WCI   9
OTTUMWA        LGT SNOW  20  16  84 N22G35    29.90R VSB 3/4 WCI   3
ST LOUIS       NOT AVBL
$$


CITY           SKY/WX    TMP DP  RH WIND       PRES   REMARKS
TERRE HAUTE    LGT RAIN  37  36  96 W5        29.59S FOG     WCI  33
EVANSVILLE     LGT RAIN  48  45  89 W9        29.62S FOG
INDIANAPOLIS   LGT RAIN  33  33 100 E3        29.57F VSB 1
LAFAYETTE      LGT SNOW  32  32 100 N3        29.59F FOG
MADISON        SNOW      12   7  80 NE25G37   29.96R VSB 1/4 WCI  -8
MILWAUKEE      SNOW      21  17  84 NE28G39   29.88F VSB 1/8 WCI   3
$$




USA.gov is the U.S. government's official web portal to all federal, state and local government web resources and services.